[ hide orbit diagram ]
For accurate long-term ephemerides, please instead use our Horizons system.This orbit viewer was implemented using two-body methods, and hence should not be used for determining accurate long-term trajectories (over several years or decades) or planetary encounter circumstances.
Orbital Elements at Epoch 2459000.5 (2020-May-31.0) TDB
Reference: JPL 23 (heliocentric ecliptic J2000)
Element | Value | Uncertainty (1-sigma) | Units |
e | .1948314080472928 | 3.2041e-08 | |
a | 2.538764548932741 | 1.266e-08 | au |
q | 2.044133477163625 | 7.7956e-08 | au |
i | 15.31792194490592 | 5.4849e-06 | deg |
node | 98.48675036757233 | 2.4673e-05 | deg |
peri | 227.5044053277691 | 3.2902e-05 | deg |
M | 103.4093116061868 | 2.2279e-05 | deg |
tp | 2458576.086479227097 (2019-Apr-02.58647923) | 9.1132e-05 | TDB |
period | 1477.515565137017 4.05 | 1.1052e-05 3.026e-08 | d yr |
n | .2436522555121885 | 1.8226e-09 | deg/d |
Q | 3.033395620701857 | 1.5127e-08 | au |
|
| | Orbit Determination Parameters
Additional Information
|
[ show covariance matrix ]
Physical Parameter Table
Parameter |
Symbol |
Value |
Units |
Sigma |
Reference |
Notes |
absolute magnitude |
H |
15.4 |
|
n/a |
MPO449491 |
|
diameter |
diameter |
2.343 |
km |
0.303 |
urn:nasa:pds:neowise_diameters_albedos::2.0[mainbelt] (http://adsabs.harvard.edu/abs/2012ApJ...759L...8M) |
|
geometric albedo |
albedo |
0.223 |
|
0.089 |
urn:nasa:pds:neowise_diameters_albedos::2.0[mainbelt] (http://adsabs.harvard.edu/abs/2012ApJ...759L...8M) |
|
|
78027 (2002 JZ72) Discovered 2002-May-08 by LINEAR at Socorro |
Reference: 20040415/Numbers.arc | Last Updated: 2004-04-19 |
|
|